User: anonymous   Login
Location: Cherry Road
(34.5193°N, 112.0852°W)
Time: 20:07:13
(UTC-07:00)
Language:

Hubble Space Telescope - Orbit

View from above orbital plane
View from above orbital plane
View from above satellite
View from above satellite

Ground track
Ground track

The orbit data is extracted from the following two-line orbital elements,

1 20580U 90037B   15142.82578186  .00001933  00000-0  11318-3 0  9995
2 20580 028.4711 321.3633 0002877 331.4443 157.8259 15.07398033175983
Epoch (UTC): 22 May 2015 19:49:07
Eccentricity: 0.0002877
inclination: 28.4711°
perigee height: 542 km
apogee height: 546 km
right ascension of ascending node: 321.3633°
argument of perigee: 331.4443°
revolutions per day: 15.07398033
mean anomaly at epoch: 157.8259°
orbit number at epoch: 17598

The dashed part of the orbit path shows where the satellite is in the earth's shadow,  

DLR